Weather History for Salem, OR

Change the Weather History Date:

Wednesday, March 27, 2013

  Actual Average Record
Temperature  
Mean Temperature 51 °F 48 °F  
Max Temperature 64 °F 58 °F 77 °F (1994)
Min Temperature 38 °F 38 °F 25 °F (1935)
Degree Days  
Heating Degree Days 14 17  
Month to date heating degree days 505 496  
Since 1 July heating degree days 3564 3736  
Cooling Degree Days 0 0  
Month to date cooling degree days 0 0  
Year to date cooling degree days 0 0  
Moisture  
Dew Point 43 °F    
Average Humidity 76    
Maximum Humidity 100    
Minimum Humidity 52    
Precipitation  
Precipitation 0.02 in 0.12 in 1.37 in (1940)
Month to date precipitation 2.20 3.52  
Year to date precipitation 5.25 14.04  
Snow  
Snow 0.00 in - - ()
Month to date snowfall 0.0  
Snow Depth 0.00 in    
Sea Level Pressure  
Sea Level Pressure 29.94 in    
Wind  
Wind Speed 2 mph (South)    
Max Wind Speed 21 mph    
Max Gust Speed 30 mph    
Visibility 5 miles    
Events Fog    
T = Trace of Precipitation, MM = Missing Value Source: NWS Daily Summary

Daily Weather History Graph

Daily Weather History Graph

Search for Another Location

Airport:

Trip Planner

Search our weather history database for the weather conditions in past years. The results will help you decide how hot, cold, wet, or windy it might be!

Date:

Astronomy

Mar. 27, 2013 Rise Set
Actual Time 7:01 AM PDT 7:33 PM PDT
Civil Twilight 6:31 AM PDT 8:03 PM PDT
Nautical Twilight 5:57 AM PDT 8:38 PM PDT
Astronomical Twilight 5:21 AM PDT 9:14 PM PDT
Moon 8:27 PM PDT (3/27) 6:53 AM PDT (3/27)
Length of Visible Light 13h 31m
Length of Day
12h 32m
Full, 100% of the Moon is Illuminated
Mar 27
Full
Apr 2
Last Quarter
Apr 10
New
Apr 18
First Quarter
Apr 25
Full

Hourly Weather History & Observations

Time (PDT) Temp. Windchill Dew Point Humidity Pressure Visibility Wind Dir Wind Speed Gust Speed Precip Events Conditions
12:56 AM 45.0 °F 42.6 °F 44.1 °F 97% 29.96 in 7.0 mi SE 4.6 mph - N/A   Mostly Cloudy
1:26 AM 44.6 °F - 44.6 °F 100% 29.95 in 1.2 mi Calm Calm - N/A   Clear
1:36 AM 42.8 °F - 42.8 °F 100% 29.95 in 1.5 mi Calm Calm - N/A   Partly Cloudy
1:51 AM 42.8 °F - 42.8 °F 100% 29.95 in 1.0 mi Calm Calm - N/A   Clear
1:56 AM 42.1 °F - 42.1 °F 100% 29.95 in 0.8 mi Calm Calm - N/A   Clear
2:15 AM 42.8 °F - 41.0 °F 93% 29.95 in 1.5 mi Calm Calm - N/A   Clear
2:18 AM 42.8 °F - 41.0 °F 93% 29.95 in 3.0 mi Calm Calm - N/A   Clear
2:32 AM 42.8 °F - 41.0 °F 93% 29.94 in 1.8 mi Calm Calm - N/A   Clear
2:40 AM 42.8 °F - 41.0 °F 93% 29.94 in 1.0 mi Calm Calm - N/A   Clear
2:56 AM 39.9 °F - 39.9 °F 100% 29.94 in 1.8 mi Calm Calm - N/A   Clear
3:00 AM 42.8 °F - 41.0 °F 93% 29.94 in 2.0 mi Calm Calm - N/A   Partly Cloudy
3:17 AM 39.2 °F - 39.2 °F 100% 29.93 in 4.0 mi Calm Calm - N/A   Partly Cloudy
3:31 AM 39.2 °F - 39.2 °F 100% 29.93 in 1.8 mi Calm Calm - N/A   Clear
3:41 AM 37.4 °F - 37.4 °F 100% 29.93 in 0.8 mi Calm Calm - N/A   Clear
3:54 AM 39.2 °F - 39.2 °F 100% 29.93 in 1.5 mi Calm Calm - N/A   Clear
3:55 AM 39.0 °F - 39.0 °F 100% 29.93 in 1.5 mi Calm Calm - N/A   Clear
4:01 AM 39.2 °F - 39.2 °F 100% 29.93 in 3.0 mi Calm Calm - N/A   Clear
4:03 AM 39.2 °F - 39.2 °F 100% 29.93 in 1.8 mi Calm Calm - N/A   Clear
4:06 AM 39.2 °F - 39.2 °F 100% 29.93 in 1.0 mi Calm Calm - N/A   Mist
4:15 AM 37.4 °F - 37.4 °F 100% 29.93 in 1.2 mi Calm Calm - N/A   Scattered Clouds
4:25 AM 39.2 °F - 39.2 °F 100% 29.93 in 2.0 mi Calm Calm - N/A   Mostly Cloudy
4:34 AM 39.2 °F - 39.2 °F 100% 29.93 in 4.0 mi Calm Calm - N/A   Overcast
4:56 AM 39.0 °F - 39.0 °F 100% 29.94 in 6.0 mi Calm Calm - N/A   Overcast
5:56 AM 42.1 °F - 41.0 °F 96% 29.93 in 2.5 mi Calm Calm - N/A   Overcast
5:58 AM 42.8 °F - 41.0 °F 93% 29.93 in 1.2 mi Calm Calm - N/A   Overcast
6:06 AM 42.8 °F 41.1 °F 42.8 °F 100% 29.93 in 0.5 mi SE 3.5 mph - N/A Fog Fog
6:21 AM 42.8 °F - 42.8 °F 100% 29.92 in 0.2 mi Calm Calm - N/A Fog Fog
6:56 AM 43.0 °F - 43.0 °F 100% 29.93 in 0.2 mi Calm Calm - N/A Fog Fog
7:56 AM 45.0 °F - 45.0 °F 100% 29.94 in 0.2 mi Calm Calm - N/A Fog Fog
8:20 AM 44.6 °F 43.1 °F 44.6 °F 100% 29.94 in 1.0 mi NNW 3.5 mph - N/A   Mist
8:22 AM 44.6 °F 43.1 °F 44.6 °F 100% 29.94 in 2.0 mi NNW 3.5 mph - N/A   Overcast
8:35 AM 44.6 °F - 44.6 °F 100% 29.93 in 4.0 mi Calm Calm - N/A   Overcast
8:56 AM 46.0 °F 44.8 °F 46.0 °F 100% 29.94 in 3.0 mi North 3.5 mph - N/A   Overcast
9:31 AM 46.4 °F - 44.6 °F 93% 29.94 in 4.0 mi Calm Calm - N/A   Overcast
9:56 AM 48.0 °F - 45.0 °F 89% 29.94 in 6.0 mi Calm Calm - N/A   Mostly Cloudy
10:51 AM 53.6 °F - 46.4 °F 77% 29.94 in 10.0 mi Calm Calm - N/A   Mostly Cloudy
10:56 AM 52.0 °F - 46.0 °F 80% 29.95 in 10.0 mi Calm Calm - N/A   Mostly Cloudy
11:56 AM 55.9 °F - 44.1 °F 64% 29.94 in 10.0 mi Calm Calm - N/A   Overcast
12:56 PM 59.0 °F - 43.0 °F 55% 29.94 in 10.0 mi Calm Calm - N/A   Overcast
1:56 PM 62.1 °F - 45.0 °F 53% 29.92 in 10.0 mi Variable 4.6 mph - N/A   Mostly Cloudy
2:56 PM 63.0 °F - 44.1 °F 50% 29.91 in 10.0 mi South 9.2 mph - N/A   Mostly Cloudy
3:56 PM 61.0 °F - 44.1 °F 54% 29.91 in 10.0 mi SSW 6.9 mph - N/A   Overcast
4:56 PM 63.0 °F - 44.1 °F 50% 29.90 in 10.0 mi Variable 6.9 mph - N/A   Mostly Cloudy
5:56 PM 60.1 °F - 46.9 °F 62% 29.92 in 10.0 mi WSW 13.8 mph - N/A   Overcast
6:56 PM 55.0 °F - 48.9 °F 80% 29.93 in 10.0 mi SSW 3.5 mph - 0.02 in   Mostly Cloudy
7:56 PM 55.0 °F - 50.0 °F 83% 29.95 in 10.0 mi Calm Calm - N/A   Overcast
8:56 PM 54.0 °F - 48.9 °F 83% 29.97 in 10.0 mi Calm Calm - N/A   Overcast
9:56 PM 50.0 °F - 48.9 °F 96% 29.99 in 10.0 mi SSE 3.5 mph - N/A   Mostly Cloudy
10:28 PM 50.0 °F - 48.2 °F 94% 29.99 in 10.0 mi South 5.8 mph - N/A   Mostly Cloudy
10:56 PM 48.0 °F - 46.9 °F 96% 29.99 in 10.0 mi SE 3.5 mph - N/A   Mostly Cloudy
11:20 PM 46.4 °F - 46.4 °F 100% 30.00 in 10.0 mi Calm Calm - N/A   Scattered Clouds
11:49 PM 46.4 °F - 46.4 °F 100% 30.00 in 10.0 mi Calm Calm - N/A   Overcast
11:56 PM 48.0 °F - 46.9 °F 96% 30.00 in 10.0 mi Calm Calm - N/A   Overcast